Tracking 31027 objects as of 19-Jul-2025
HD Live streaming from Space Station
objects crossing your sky now

STARLINK-11499

Track STARLINK-11499 now!
10-day predictions
STARLINK-11499 is classified as:


NORAD ID: 62279
Int'l Code: 2024-237N
Perigee: 363.0 km
Apogee: 363.8 km
Inclination: 43.0 °
Period: 91.7 minutes
Semi major axis: 6734 km
RCS: Unknown
Launch date: December 8, 2024
Source: United States (US)
Launch site: AIR FORCE EASTERN TEST RANGE (AFETR)
Your satellite tracking list
XMM
Track 1 satellite(s)




NASA's NSSDC Master Catalog

Two Line Element Set (TLE):
1 62279U 24237N   25199.56790187  .00148373  00000-0  11354-2 0  9995
2 62279  42.9984  28.4740 0000547 252.1405 107.9403 15.70921293 36174
Source of the keplerian elements: AFSPC